Regional Weather Roundup
Issued by NWS Wakefield, VA

Home | Current Version | Previous Version | Text Only | Print | Product List | Glossary Off
Versions: 1 2 3 4 5 6 7 8 9 10 11 12 13 14 15 16 17 18 19 20 21 22 23 24 25 26 27 28 29 30 31 32 33 34 35 36 37 38 39 40 41 42 43 44 45 46 47 48 49 50

000
ASUS41 KAKQ 201610
RWRAKQ

REGIONAL WEATHER ROUNDUP
NATIONAL WEATHER SERVICE WAKEFIELD VA
1100 AM EST SAT DEC 20 2014

Note: "fair" indicates few or no clouds below 12,000 feet with no
significant weather and/or obstructions to visibility. * = Denotes
station may not report precipitation (e.g., rain,snow,etc.),
thunder or fog.

VAZ042-051-052>054-056-201700-
NORTHERN VIRGINIA

CITY           SKY/WX    TMP DP  RH WIND       PRES   REMARKS
WASH NATIONAL  CLOUDY    37  20  50 NE5       30.34F
DULLES         CLOUDY    31  20  63 CALM      30.32F
FORT BELVOIR   CLOUDY    34  22  60 VRB3      30.33F
QUANTICO       CLOUDY    34  21  59 NE5       30.34F
FREDERICKSBRG* CLOUDY    35  25  67 N6        30.32F
STAFFORD*      CLOUDY    33  22  64 N3        30.36F
WARRENTON      CLOUDY    33  30  87 CALM      30.31F
CULPEPER*      PTSUNNY   34  28  80 CALM      30.32F
MANASSAS*      SUNNY     32  30  93 NE6       30.33F
LEESBURG*      CLOUDY    32  27  80 CALM      30.32F
WINCHESTER     CLOUDY    32  21  64 CALM      30.29S
FRONT ROYAL*   PTSUNNY   30  27  86 CALM      30.28F
LURAY*         PTSUNNY   32  28  86 CALM      30.27F
$$

VAZ048-049-060>072-079>083-201700-
CENTRAL AND SOUTH CENTRAL VIRGINIA

CITY           SKY/WX    TMP DP  RH WIND       PRES   REMARKS
RICHMOND       CLOUDY    36  21  54 NE5       30.33R
CHESTERFIELD*  CLOUDY    36  16  44 NE6       30.33S
PETERSBURG*    CLOUDY    37  24  59 NE8       30.33F
HANOVER        CLOUDY    33  21  61 NE5       30.34S
TAPPAHANNOCK*  CLOUDY    34  23  64 CALM      30.34R
QUINTON*       CLOUDY    33  23  67 CALM      30.33S
CHARLOTTSVILLE PTSUNNY   33  24  69 S6        30.29F
GORDONSVILLE*  CLOUDY    33  24  71 S3        30.31S
ORANGE*        PTSUNNY   34  27  75 CALM      30.32F
LOUISA*        PTSUNNY   34  25  69 CALM      30.30S
BUMPASS*       CLOUDY    32  23  68 CALM      30.32F
FARMVILLE*     CLOUDY    37  28  69 CALM      30.31S
CREWE*         CLOUDY    33  23  67 E3        30.31F
FORT PICKETT*  CLOUDY    34  24  66 NE6       30.31F
CHASE CITY*    CLOUDY    36  26  67 NE3       30.31F
CLARKSVILLE*   CLOUDY    34  27  75 CALM      30.30F
SOUTH HILL*    CLOUDY    34  24  66 CALM      30.37F
LAWRENCEVILLE* CLOUDY    35  24  66 N3        30.31S
EMPORIA*       CLOUDY    34  27  75 N5        30.34F
$$

VAZ088>098-201700-
SOUTHEAST VIRGINIA

CITY           SKY/WX    TMP DP  RH WIND       PRES   REMARKS
NORFOLK        CLOUDY    40  28  62 NE7       30.31S
VIRGINIA BEACH CLOUDY    41  29  62 N7        30.31S
NORFOLK NAVAL  CLOUDY    43  31  62 N8        30.33S
WEST POINT*    CLOUDY    37  24  59 CALM      30.35R
SALUDA*        FAIR      34  25  67 N5        30.32S
NEWPORT NEWS   CLOUDY    40  27  59 NE6       30.32S
LANGLEY AFB    CLOUDY    38  29  70 N7        30.32F
FORT EUSTIS    CLOUDY    38  26  61 VRB3      30.31R
WILLIAMSBURG*  CLOUDY    39  28  65 CALM      30.33S
HR EXEC AP*    CLOUDY    37  30  75 NE6       30.34R
FRANKLIN*      CLOUDY    36  28  75 N3        30.32F
WAKEFIELD      CLOUDY    37  25  61 VRB3      30.33S
$$

VAZ020-022-025-037-045-201700-
WEST CENTRAL AND SOUTHWEST VIRGINIA

CITY           SKY/WX    TMP DP  RH WIND       PRES   REMARKS
STAUNTON*      CLOUDY    31  24  73 CALM      30.28S
WAYNESBORO*    CLOUDY    29  23  76 CALM      30.24F
HOT SPRINGS VA CLOUDY    30  25  80 W12       30.10S WCI  20
LYNCHBURG      CLOUDY    32  23  69 S5        30.30F
DANVILLE       CLOUDY    36  24  62 E6        30.31S
SOUTH BOSTON*  CLOUDY    35  23  62 E3        30.31F
MARTINSVILLE   CLOUDY    37  27  68 CALM      30.30F
ROANOKE        CLOUDY    33  24  69 SE5       30.29F
BLACKSBURG     CLOUDY    31  26  80 CALM      30.24F
DUBLIN*        CLOUDY    32  30  92 CALM      30.23S
MARION*        CLOUDY    35  30  84 E3        30.21S
HILLSVILLE*    CLOUDY    34  27  74 S5        30.19S
RICHLANDS*     CLOUDY    33  30  89 CALM      30.17S
WISE*          CLOUDY    32  32 100 CALM      30.18R
ABINGDON*      CLOUDY    38  35  87 E6        30.19S
$$

MDZ021>025-VAZ099-100-201700-
SOUTHERN MARYLAND AND THE DELMARVA PENINSULA

CITY           SKY/WX    TMP DP  RH WIND       PRES   REMARKS
PATUXENT RIVER CLOUDY    34  22  61 NW6       30.31F
BAY BRIDGE APT   N/A     34  23  64 NW5       30.32F
LEONARDTOWN    CLOUDY    32  23  69 CALM      30.33S
DOVER          CLOUDY    35  26  70 NE5       30.28F
GEORGETOWN     CLOUDY    35  25  66 NW3       30.31F
EASTON         CLOUDY    36  27  69 CALM      30.34F
CAMBRIDGE      CLOUDY    36  27  69 N5        30.31F
SALISBURY      CLOUDY    36  25  64 NW3       30.30F
OCEAN CITY     PTSUNNY   34  26  72 NW3       30.30F
WALLOPS ISLAND CLOUDY    34  26  72 NW5       30.32F
ACCOMACK*      CLOUDY    36  25  64 CALM      30.31S
$$

NCZ012>017-030>032-201700-
NORTH CENTRAL AND EASTERN NORTH CAROLINA

CITY           SKY/WX    TMP DP  RH WIND       PRES   REMARKS
ROANOKE RAPIDS CLOUDY    36  27  69 NE3       30.32F
RALEIGH        CLOUDY    34  29  82 NE3       30.30F
ELIZABETH CITY CLOUDY    43  30  60 N7        30.31F
AHOSKIE*       CLOUDY    36  28  74 N5        30.32F
EDENTON*         N/A     39  32  77 N6        30.30F
CURRITUCK*     CLOUDY    40  29  63 N6        30.32R
KILL DEVIL HLS CLOUDY    42  35  75 N3        30.28F
MANTEO         CLOUDY    42  34  72 N7        30.29F
CAPE HATTERAS  LGT RAIN  44  38  79 N8        30.27F
TARBORO*       CLOUDY    39  30  70 N5        30.32S
GOLDSBORO      MIX PCPN  38  37  97 NE2       30.28F
WASHINGTON     CLOUDY    38  32  77 NE6       30.30S
GREENVILLE     DRIZZLE   37  32  81 N5        30.30F
NEW BERN       CLOUDY    43  36  76 NE5       30.29S
WILMINGTON     LGT RAIN  44  41  89 NE7       30.27R
$$

VAZ048-201700-
ELSEWHERE

CITY           SKY/WX    TMP DP  RH WIND       PRES   REMARKS
HARRISBURG PA  CLOUDY    32  20  61 N3        30.29F
BALTIMORE      CLOUDY    33  21  61 NW5       30.31F
ANNAPOLIS      PTSUNNY   34  23  64 NW5       30.32F
ANDREWS AFB    NOT AVBL
PHILADELPHIA   CLOUDY    34  20  56 NE9       30.31F
HENDERSON NC   CLOUDY    34  25  70 CALM      30.30F
GREENSBORO     FLURRIES  35  29  78 NE6       30.26S
ROCKY MOUNT    LGT RAIN  37  29  72 N6        30.31F
$$

VAZ100-201700-
MARINE

STATION/POSITION TIME  TEMP    WIND        PRES    WAVE   SWELL
                       AIR SEA DIR/SP/G            HT/PER HT/PER
                 (UTC) (F)     (DEG/KT/KT) (MB)    (FT/S) (FT/S)
CAPE MAY NJ      1600   35 42   60/  4/  6 1025.3F
LEWES DE         1600   35 41   20/  6/  7 1025.6F
15NM E FENWICK I 1600   36 46              1025.6F   2/ 4
OCEAN-CITY-INLET 1600   34 44  350/  5/  6 1025.4F
WACHAPREAGUE VA  1600   35 41   10/  4/  6 1026.4S
THOMAS POINT MD  1600   33 40  340/  5/  6 1027.7F
COVE POINT MD    1600   33      20/  5/  9 1026.3F
SOLOMONS ISLAND  1600      43                N/A
BISHOPS HEAD MD  1600   34 36  360/  4/  7 1025.9S
CAMBRIDGE MD     1600   34 39  360/  4/  6 1026.2F
LEWISETTA VA     1600   34 40  340/  3/  4 1026.7R
RAPPAHANNOCK LGT 1600           10/  8/ 10 1026.7F
YORK RVR RNG VA  1600   36      10/  7/  8 1026.2R
YORKTOWN VA      1600   36 45  330/  3/  4 1026.7R
DOMINION TERM VA 1600   38      40/  3/  5 1026.8R
KIPTOPEKE VA     1600      49   60/  6/  8   N/A
CHES BAY BRIDGE  1600   37 46   20/  6/ 10 1026.0R
CAPE HENRY VA    1600   37      20/  8/ 10 1025.1R
CHESAPEAKE LGHT  1500   38     360/  8/  8 1027.1R
WILLOUBY STN VA  1600   38      10/  7/  8 1026.9R
S CRANEY ISL VA  1600           20/  7/  9 1026.5R
CAPE HENRY BUOY  1500      48                N/A     2/ 4
CAPE CHARLES BUO 1600      47                N/A     2/ 4   2/ 4
64NM E OF VA BCH 1600   43 54  350/  8/ 14 1025.4F   2/ 5   2/ 5
DUCK PIER NC     1600   41 46   10/  8/ 10 1025.1R
44100 DUCK FRF   1600      52                N/A     3/ 5
44056 DUCK FRF   1600      46                N/A     2/ 5
OREGON INLET NC  1600   43 49  350/  8/ 11 1025.5F
HATTERAS NC      1600   44 52   10/ 15/ 16 1025.1F
DIAMOND SHLS NC  1600   49                 1024.7F   3/ 7
CAPE LOOKOUT NC  1500   46      30/ 12/ 14 1024.5S
$$


USA.gov is the U.S. government's official web portal to all federal, state and local government web resources and services.